INMARSAT 5-F4 (42698 NORAD) Tracking and Keplerian Element Data

This shows tracking and keplerian element data for the satellite.

Feedback or suggestion? Click here.




ElementValue
Catalog42698
NameINMARSAT 5-F4
Epoch Orbit704
Epoch Day109.73978524
Epoch Year2019
RAAN232.9672
Inclination0.0173
Eccentricity2.92E-05
Argument of Perigee234.4941
Mean Anonmoly62.8924
Mean Motion1.00270572
Decay Rate5.6E-07
L11 42698U 17025A 19109.73978524 .00000056 00000-0 00000-0 0 9990
L22 42698 0.0173 232.9672 0000292 234.4941 62.8924 1.00270572 7049

Live tracking and technical data element details for INMARSAT 5-F4 (NORAD 42698). INMARSAT 5-F4 can be tracked NOW for your location showing map with azimuth and elevation plus other details from your city location.

Track the satellite on the map from your city or location and see movement details for azimuth, elevation, latitude, longitude, range, height, and movement on the map or in text.







IsCatalogInMostPopularTable: catalog: 42698, numindb: 277
Update: records affected: 1



GetName: 42698 INMARSAT 5-F4

Hit Count: updated at: Sat, 20 Apr 2019 20:43:54 GMT